COSMO-SKYMED 1

Last updated on Thu Oct 23 2025 00:02:19 GMT+0000 (Coordinated Universal Time)

1 31598U 07023A 25295.53583333 .00004612 00000+0 42454-3 0 9998 2 31598 97.8867 120.6141 0001493 88.2785 271.8606 14.95234272994240
UTC large
Height (km)
Speed (km/s)
/
Latitude / Longitude
Inclination (degrees)
Orbital Period (minutes)
Azimuth
Elevation
Range (km)
Doppler Factor

Next 0 passes for location: London (51.5072 / 0.1276)

Sorry there are no passes over London.